User: anonymous   Login
Location: Vancouver
(49.2500°N, 123.1330°W)
Time: 09:52:32
(UTC-07:00)
Language:

Cosmos 1408 Rocket - Orbit

View from above orbital plane
View from above orbital plane
View from above satellite
View from above satellite

Ground track
Ground track

The orbit data is extracted from the following two-line orbital elements,

1 13553U 82092B   14296.83894097  .00000874  00000-0  10264-3 0   512
2 13553 082.5707 055.1202 0021295 004.7721 117.1116 14.83634077733579
Epoch (UTC): 23 October 2014 20:08:04
Eccentricity: 0.0021295
inclination: 82.5707°
perigee height: 603 km
apogee height: 633 km
right ascension of ascending node: 55.1202°
argument of perigee: 4.7721°
revolutions per day: 14.83634077
mean anomaly at epoch: 117.1116°
orbit number at epoch: 73357

The dashed part of the orbit path shows where the satellite is in the earth's shadow,  

DLR